Time,TemperatureF,DewpointF,PressureIn,WindDirection,WindDirectionDegrees,WindSpeedMPH,WindSpeedGustMPH,Humidity,HourlyPrecipIn,Conditions,Clouds,dailyrainin,SoftwareType,DateUTC
2013-02-05 00:00:00,47.4,39.2,30.00,NNW,338,1.0,4.0,73,0.00,,,0.00,VWS V14.01,2013-02-05 07:00:00,
2013-02-05 00:05:00,47.6,39.4,29.99,NNW,338,3.0,5.0,73,0.00,,,0.00,VWS V14.01,2013-02-05 07:05:00,
2013-02-05 00:10:00,47.8,39.2,29.99,NNW,338,3.0,5.0,72,0.00,,,0.00,VWS V14.01,2013-02-05 07:10:00,
2013-02-05 00:15:00,48.0,39.4,29.99,NNW,338,2.0,4.0,72,0.00,,,0.00,VWS V14.01,2013-02-05 07:15:00,
2013-02-05 00:20:00,48.1,39.2,29.99,NNW,338,1.0,4.0,71,0.00,,,0.00,VWS V14.01,2013-02-05 07:20:00,
2013-02-05 00:25:00,48.3,39.3,29.99,NNW,338,2.0,4.0,71,0.00,,,0.00,VWS V14.01,2013-02-05 07:25:00,
2013-02-05 00:30:00,48.5,39.5,29.99,NNW,338,2.0,4.0,71,0.00,,,0.00,VWS V14.01,2013-02-05 07:30:00,
2013-02-05 00:35:00,48.5,39.2,29.99,NNW,338,2.0,4.0,70,0.00,,,0.00,VWS V14.01,2013-02-05 07:35:00,
2013-02-05 00:40:00,48.6,39.3,29.99,NNW,338,1.0,3.0,70,0.00,,,0.00,VWS V14.01,2013-02-05 07:40:00,
2013-02-05 00:45:00,48.6,39.3,29.99,NNW,338,1.0,2.0,70,0.00,,,0.00,VWS V14.01,2013-02-05 07:45:00,
2013-02-05 00:50:00,48.3,39.0,29.99,NNW,338,2.0,3.0,70,0.00,,,0.00,VWS V14.01,2013-02-05 07:50:00,
2013-02-05 00:55:00,47.8,38.9,29.99,NNW,338,2.0,4.0,71,0.00,,,0.00,VWS V14.01,2013-02-05 07:55:00,
2013-02-05 01:00:00,47.3,38.7,29.99,NNW,338,2.0,5.0,72,0.00,,,0.00,VWS V14.01,2013-02-05 08:00:00,
2013-02-05 01:05:00,47.0,38.5,29.99,NNW,338,3.0,5.0,72,0.00,,,0.00,VWS V14.01,2013-02-05 08:05:00,
2013-02-05 01:10:00,47.1,38.9,29.99,NNW,338,2.0,4.0,73,0.00,,,0.00,VWS V14.01,2013-02-05 08:10:00,
2013-02-05 01:15:00,47.3,38.7,29.98,NNW,338,1.0,4.0,72,0.00,,,0.00,VWS V14.01,2013-02-05 08:15:00,
2013-02-05 01:20:00,47.4,38.8,29.99,NNW,338,1.0,3.0,72,0.00,,,0.00,VWS V14.01,2013-02-05 08:20:00,
2013-02-05 01:25:00,47.4,38.8,29.98,NNW,338,1.0,3.0,72,0.00,,,0.00,VWS V14.01,2013-02-05 08:25:00,
2013-02-05 01:30:00,47.4,38.8,29.98,NNW,338,1.0,2.0,72,0.00,,,0.00,VWS V14.01,2013-02-05 08:30:00,
2013-02-05 01:35:00,47.3,38.7,29.98,NNW,338,1.0,3.0,72,0.00,,,0.00,VWS V14.01,2013-02-05 08:35:00,
2013-02-05 01:40:00,47.2,38.7,29.98,NNW,338,0.0,3.0,72,0.00,,,0.00,VWS V14.01,2013-02-05 08:40:00,
2013-02-05 01:45:00,47.1,38.5,29.98,NNW,338,0.0,1.0,72,0.00,,,0.00,VWS V14.01,2013-02-05 08:45:00,
2013-02-05 01:50:00,46.9,38.7,29.98,NNW,338,0.0,1.0,73,0.00,,,0.00,VWS V14.01,2013-02-05 08:50:00,
2013-02-05 01:55:00,46.6,38.4,29.98,NNW,338,2.0,4.0,73,0.00,,,0.00,VWS V14.01,2013-02-05 08:55:00,
2013-02-05 02:00:00,46.4,38.6,29.98,NNW,338,1.0,3.0,74,0.00,,,0.00,VWS V14.01,2013-02-05 09:00:00,
2013-02-05 02:05:00,46.2,38.4,29.98,NNW,338,1.0,3.0,74,0.00,,,0.00,VWS V14.01,2013-02-05 09:05:00,
2013-02-05 02:10:00,46.1,38.3,29.98,NNW,338,0.0,2.0,74,0.00,,,0.00,VWS V14.01,2013-02-05 09:10:00,
2013-02-05 02:15:00,46.0,38.5,29.98,NNW,338,0.0,2.0,75,0.00,,,0.00,VWS V14.01,2013-02-05 09:15:00,
2013-02-05 02:20:00,45.9,38.4,29.98,NNW,338,2.0,4.0,75,0.00,,,0.00,VWS V14.01,2013-02-05 09:20:00,
2013-02-05 02:25:00,45.8,38.3,29.98,NNW,338,2.0,4.0,75,0.00,,,0.00,VWS V14.01,2013-02-05 09:25:00,
2013-02-05 02:30:00,45.8,38.3,29.98,NNW,338,0.0,2.0,75,0.00,,,0.00,VWS V14.01,2013-02-05 09:30:00,
2013-02-05 02:35:00,45.7,38.6,29.98,NNW,338,0.0,2.0,76,0.00,,,0.00,VWS V14.01,2013-02-05 09:35:00,
2013-02-05 02:40:00,45.7,38.6,29.97,NNW,338,1.0,3.0,76,0.00,,,0.00,VWS V14.01,2013-02-05 09:40:00,
2013-02-05 02:45:00,45.8,38.7,29.98,NNW,338,0.0,1.0,76,0.00,,,0.00,VWS V14.01,2013-02-05 09:45:00,
2013-02-05 02:50:00,45.8,38.7,29.97,NNW,338,0.0,1.0,76,0.00,,,0.00,VWS V14.01,2013-02-05 09:50:00,
2013-02-05 02:55:00,45.9,38.4,29.98,NNW,338,1.0,3.0,75,0.00,,,0.00,VWS V14.01,2013-02-05 09:55:00,
2013-02-05 03:00:00,45.9,38.4,29.98,NNW,338,1.0,3.0,75,0.00,,,0.00,VWS V14.01,2013-02-05 10:00:00,
2013-02-05 03:05:00,45.8,38.3,29.98,NNW,338,0.0,2.0,75,0.00,,,0.00,VWS V14.01,2013-02-05 10:05:00,
2013-02-05 03:10:00,45.6,38.2,29.98,NNW,338,1.0,3.0,75,0.00,,,0.00,VWS V14.01,2013-02-05 10:10:00,
2013-02-05 03:15:00,45.2,38.1,29.98,NNW,338,1.0,3.0,76,0.00,,,0.00,VWS V14.01,2013-02-05 10:15:00,
2013-02-05 03:20:00,44.9,37.8,29.98,NNW,338,1.0,4.0,76,0.00,,,0.00,VWS V14.01,2013-02-05 10:20:00,
2013-02-05 03:25:00,44.6,37.8,29.98,NNW,338,1.0,3.0,77,0.00,,,0.00,VWS V14.01,2013-02-05 10:25:00,
2013-02-05 03:30:00,44.3,37.9,29.98,NNW,338,1.0,4.0,78,0.00,,,0.00,VWS V14.01,2013-02-05 10:30:00,
2013-02-05 03:35:00,44.2,37.8,29.97,NNW,338,3.0,5.0,78,0.00,,,0.00,VWS V14.01,2013-02-05 10:35:00,
2013-02-05 03:40:00,44.6,38.2,29.97,NNW,338,3.0,5.0,78,0.00,,,0.00,VWS V14.01,2013-02-05 10:40:00,
2013-02-05 03:45:00,44.8,38.4,29.97,NNW,338,3.0,5.0,78,0.00,,,0.00,VWS V14.01,2013-02-05 10:45:00,
2013-02-05 03:50:00,45.0,38.2,29.97,NNW,338,2.0,4.0,77,0.00,,,0.00,VWS V14.01,2013-02-05 10:50:00,
2013-02-05 03:55:00,45.2,38.4,29.97,NNW,338,3.0,5.0,77,0.00,,,0.00,VWS V14.01,2013-02-05 10:55:00,
2013-02-05 04:00:00,45.4,38.3,29.97,NNW,338,3.0,5.0,76,0.00,,,0.00,VWS V14.01,2013-02-05 11:00:00,
2013-02-05 04:05:00,45.4,38.3,29.97,NNW,338,1.0,3.0,76,0.00,,,0.00,VWS V14.01,2013-02-05 11:05:00,
2013-02-05 04:10:00,45.3,38.2,29.97,NNW,338,0.0,1.0,76,0.00,,,0.00,VWS V14.01,2013-02-05 11:10:00,
2013-02-05 04:15:00,45.1,38.0,29.97,NNW,338,0.0,1.0,76,0.00,,,0.00,VWS V14.01,2013-02-05 11:15:00,
2013-02-05 04:20:00,45.1,38.3,29.97,NNW,338,1.0,3.0,77,0.00,,,0.00,VWS V14.01,2013-02-05 11:20:00,
2013-02-05 04:25:00,45.1,38.0,29.97,NNW,338,1.0,4.0,76,0.00,,,0.00,VWS V14.01,2013-02-05 11:25:00,
2013-02-05 04:30:00,45.1,38.0,29.97,NNW,338,1.0,3.0,76,0.00,,,0.00,VWS V14.01,2013-02-05 11:30:00,
2013-02-05 04:35:00,45.1,38.0,29.96,NNW,338,1.0,3.0,76,0.00,,,0.00,VWS V14.01,2013-02-05 11:35:00,
2013-02-05 04:40:00,44.9,37.8,29.97,NNW,338,2.0,3.0,76,0.00,,,0.00,VWS V14.01,2013-02-05 11:40:00,
2013-02-05 04:45:00,44.8,38.0,29.96,NNW,338,1.0,3.0,77,0.00,,,0.00,VWS V14.01,2013-02-05 11:45:00,
2013-02-05 04:50:00,44.7,37.9,29.96,NNW,338,2.0,3.0,77,0.00,,,0.00,VWS V14.01,2013-02-05 11:50:00,
2013-02-05 04:55:00,44.6,37.8,29.96,NNW,338,1.0,3.0,77,0.00,,,0.00,VWS V14.01,2013-02-05 11:55:00,
2013-02-05 05:00:00,44.6,38.2,29.96,NNW,338,1.0,3.0,78,0.00,,,0.00,VWS V14.01,2013-02-05 12:00:00,
2013-02-05 05:05:00,44.7,38.3,29.96,NNW,338,3.0,5.0,78,0.00,,,0.00,VWS V14.01,2013-02-05 12:05:00,
2013-02-05 05:10:00,44.9,38.1,29.97,NNW,338,4.0,6.0,77,0.00,,,0.00,VWS V14.01,2013-02-05 12:10:00,
2013-02-05 05:15:00,44.9,38.1,29.96,NNW,338,4.0,6.0,77,0.00,,,0.00,VWS V14.01,2013-02-05 12:15:00,
2013-02-05 05:20:00,45.0,38.2,29.97,NNW,338,3.0,5.0,77,0.00,,,0.00,VWS V14.01,2013-02-05 12:20:00,
2013-02-05 05:25:00,45.0,38.2,29.97,NNW,338,3.0,4.0,77,0.00,,,0.00,VWS V14.01,2013-02-05 12:25:00,
2013-02-05 05:30:00,45.1,38.3,29.97,NNW,338,1.0,4.0,77,0.00,,,0.00,VWS V14.01,2013-02-05 12:30:00,
2013-02-05 05:35:00,45.1,38.3,29.97,NNW,338,0.0,1.0,77,0.00,,,0.00,VWS V14.01,2013-02-05 12:35:00,
2013-02-05 05:40:00,45.0,38.2,29.97,NNW,338,1.0,3.0,77,0.00,,,0.00,VWS V14.01,2013-02-05 12:40:00,
2013-02-05 05:45:00,45.2,38.4,29.97,NNW,338,2.0,4.0,77,0.00,,,0.00,VWS V14.01,2013-02-05 12:45:00,
2013-02-05 05:50:00,45.9,39.1,29.97,NNW,338,4.0,6.0,77,0.00,,,0.00,VWS V14.01,2013-02-05 12:50:00,
2013-02-05 05:55:00,46.9,39.4,29.97,NNW,338,4.0,7.0,75,0.00,,,0.00,VWS V14.01,2013-02-05 12:55:00,
2013-02-05 06:00:00,47.6,39.7,29.97,NNW,338,2.0,6.0,74,0.00,,,0.00,VWS V14.01,2013-02-05 13:00:00,
2013-02-05 06:05:00,47.9,39.3,29.97,NNW,338,0.0,2.0,72,0.00,,,0.00,VWS V14.01,2013-02-05 13:05:00,
2013-02-05 06:10:00,47.9,39.3,29.97,NNW,338,0.0,2.0,72,0.00,,,0.00,VWS V14.01,2013-02-05 13:10:00,
2013-02-05 06:15:00,47.6,39.0,29.97,NNW,338,1.0,3.0,72,0.00,,,0.00,VWS V14.01,2013-02-05 13:15:00,
2013-02-05 06:20:00,47.2,39.0,29.97,NNW,338,1.0,3.0,73,0.00,,,0.00,VWS V14.01,2013-02-05 13:20:00,
2013-02-05 06:25:00,47.1,39.2,29.97,NNW,338,2.0,4.0,74,0.00,,,0.00,VWS V14.01,2013-02-05 13:25:00,
2013-02-05 06:30:00,47.1,39.2,29.97,NNW,338,1.0,4.0,74,0.00,,,0.00,VWS V14.01,2013-02-05 13:30:00,
2013-02-05 06:35:00,47.0,39.2,29.97,NNW,338,1.0,4.0,74,0.00,,,0.00,VWS V14.01,2013-02-05 13:35:00,
2013-02-05 06:40:00,46.9,39.1,29.97,NNW,338,2.0,4.0,74,0.00,,,0.00,VWS V14.01,2013-02-05 13:40:00,
2013-02-05 06:45:00,46.9,39.1,29.97,NNW,338,3.0,4.0,74,0.00,,,0.00,VWS V14.01,2013-02-05 13:45:00,
2013-02-05 06:50:00,46.8,39.0,29.98,NNW,338,3.0,5.0,74,0.00,,,0.00,VWS V14.01,2013-02-05 13:50:00,
2013-02-05 06:55:00,46.8,39.0,29.98,NNW,338,4.0,6.0,74,0.00,,,0.00,VWS V14.01,2013-02-05 13:55:00,
2013-02-05 07:00:00,47.1,38.9,29.97,NNW,338,3.0,5.0,73,0.00,,,0.00,VWS V14.01,2013-02-05 14:00:00,
2013-02-05 07:05:00,47.3,40.1,29.98,NNW,338,3.0,6.0,76,0.00,,,0.00,VWS V14.01,2013-02-05 14:05:00,
2013-02-05 07:10:00,47.4,39.2,29.98,NNW,338,3.0,5.0,73,0.00,,,0.00,VWS V14.01,2013-02-05 14:10:00,
2013-02-05 07:15:00,47.3,39.1,29.98,NNW,338,4.0,7.0,73,0.00,,,0.00,VWS V14.01,2013-02-05 14:15:00,
2013-02-05 07:20:00,47.3,39.1,29.98,NNW,338,4.0,6.0,73,0.00,,,0.00,VWS V14.01,2013-02-05 14:20:00,
2013-02-05 07:25:00,47.3,39.1,29.98,NNW,338,4.0,7.0,73,0.00,,,0.00,VWS V14.01,2013-02-05 14:25:00,
2013-02-05 07:30:00,47.4,39.2,29.98,NNW,338,5.0,7.0,73,0.00,,,0.00,VWS V14.01,2013-02-05 14:30:00,
2013-02-05 07:35:00,47.4,38.8,29.98,NNW,338,4.0,7.0,72,0.00,,,0.00,VWS V14.01,2013-02-05 14:35:00,
2013-02-05 07:46:00,47.4,38.8,29.98,NNW,338,4.0,7.0,72,0.00,,,0.00,VWS V14.01,2013-02-05 14:46:00,
2013-02-05 07:56:00,48.2,39.2,29.99,NNW,333,4.0,6.0,71,0.00,,,0.00,VWS V14.01,2013-02-05 14:56:00,
2013-02-05 08:01:00,48.8,39.5,29.99,NNW,333,5.0,7.0,70,0.00,,,0.00,VWS V14.01,2013-02-05 15:01:00,
2013-02-05 08:06:00,49.4,40.0,29.99,NNW,333,3.0,7.0,70,0.00,,,0.00,VWS V14.01,2013-02-05 15:06:00,
2013-02-05 08:11:00,49.9,40.2,29.99,NNW,333,4.0,6.0,69,0.00,,,0.00,VWS V14.01,2013-02-05 15:11:00,
2013-02-05 08:16:00,50.4,40.2,29.99,NNW,333,5.0,5.0,68,0.00,,,0.00,VWS V14.01,2013-02-05 15:16:00,
2013-02-05 08:21:00,51.0,40.4,29.99,NNW,333,4.0,4.0,67,0.00,,,0.00,VWS V14.01,2013-02-05 15:21:00,
2013-02-05 08:26:00,51.5,40.5,29.99,NNW,333,3.0,3.0,66,0.00,,,0.00,VWS V14.01,2013-02-05 15:26:00,
2013-02-05 08:31:00,52.1,40.7,29.99,NNW,333,4.0,4.0,65,0.00,,,0.00,VWS V14.01,2013-02-05 15:31:00,
2013-02-05 08:36:00,52.6,40.8,29.99,NNW,333,2.0,2.0,64,0.00,,,0.00,VWS V14.01,2013-02-05 15:36:00,
2013-02-05 08:41:00,53.2,41.0,29.99,NNW,333,5.0,5.0,63,0.00,,,0.00,VWS V14.01,2013-02-05 15:41:00,
2013-02-05 08:46:00,53.8,41.1,30.00,NNW,333,2.0,2.0,62,0.00,,,0.00,VWS V14.01,2013-02-05 15:46:00,
2013-02-05 08:51:00,54.4,41.2,30.00,NNW,333,2.0,3.0,61,0.00,,,0.00,VWS V14.01,2013-02-05 15:51:00,
2013-02-05 08:56:00,54.9,41.3,30.00,NNW,333,1.0,1.0,60,0.00,,,0.00,VWS V14.01,2013-02-05 15:56:00,
2013-02-05 09:01:00,55.3,41.2,30.00,NNW,333,3.0,3.0,59,0.00,,,0.00,VWS V14.01,2013-02-05 16:01:00,
2013-02-05 09:06:00,55.9,41.3,30.00,NNW,333,1.0,2.0,58,0.00,,,0.00,VWS V14.01,2013-02-05 16:06:00,
2013-02-05 09:11:00,56.4,41.4,30.00,NNW,333,0.0,0.0,57,0.00,,,0.00,VWS V14.01,2013-02-05 16:11:00,
2013-02-05 09:16:00,57.1,41.1,30.00,NNW,333,0.0,0.0,55,0.00,,,0.00,VWS V14.01,2013-02-05 16:16:00,
2013-02-05 09:21:00,57.8,41.3,30.00,NNW,333,0.0,0.0,54,0.00,,,0.00,VWS V14.01,2013-02-05 16:21:00,
2013-02-05 09:26:00,58.4,41.3,30.00,NNW,333,2.0,4.0,53,0.00,,,0.00,VWS V14.01,2013-02-05 16:26:00,
2013-02-05 09:31:00,58.9,41.8,30.00,NNW,333,0.0,0.0,53,0.00,,,0.00,VWS V14.01,2013-02-05 16:31:00,
2013-02-05 09:36:00,59.6,42.0,30.00,NNW,333,1.0,1.0,52,0.00,,,0.00,VWS V14.01,2013-02-05 16:36:00,
2013-02-05 09:41:00,60.3,42.1,30.00,NNW,333,0.0,0.0,51,0.00,,,0.00,VWS V14.01,2013-02-05 16:41:00,
2013-02-05 09:46:00,60.9,42.2,29.99,NNW,333,0.0,1.0,50,0.00,,,0.00,VWS V14.01,2013-02-05 16:46:00,
2013-02-05 09:51:00,61.6,42.8,29.99,NNW,333,0.0,1.0,50,0.00,,,0.00,VWS V14.01,2013-02-05 16:51:00,
2013-02-05 09:56:00,62.2,42.8,29.99,NNW,333,0.0,1.0,49,0.00,,,0.00,VWS V14.01,2013-02-05 16:56:00,
2013-02-05 10:01:00,62.6,42.7,29.99,NNW,327,0.0,2.0,48,0.00,,,0.00,VWS V14.01,2013-02-05 17:01:00,
2013-02-05 10:06:00,63.0,42.5,29.99,NNW,327,0.0,3.0,47,0.00,,,0.00,VWS V14.01,2013-02-05 17:06:00,
2013-02-05 10:11:00,63.1,42.0,29.99,NNW,327,0.0,3.0,46,0.00,,,0.00,VWS V14.01,2013-02-05 17:11:00,
2013-02-05 10:16:00,63.3,41.6,30.00,NW,319,5.0,5.0,45,0.00,,,0.00,VWS V14.01,2013-02-05 17:16:00,
2013-02-05 10:21:00,63.5,41.8,30.00,NW,312,1.0,1.0,45,0.00,,,0.00,VWS V14.01,2013-02-05 17:21:00,
2013-02-05 10:26:00,63.8,41.5,30.00,NW,308,1.0,3.0,44,0.00,,,0.00,VWS V14.01,2013-02-05 17:26:00,
2013-02-05 10:31:00,64.2,41.8,30.00,West,280,5.0,5.0,44,0.00,,,0.00,VWS V14.01,2013-02-05 17:31:00,
2013-02-05 10:36:00,64.5,41.5,29.99,West,275,7.0,7.0,43,0.00,,,0.00,VWS V14.01,2013-02-05 17:36:00,
2013-02-05 10:41:00,64.8,41.8,29.99,West,275,0.0,5.0,43,0.00,,,0.00,VWS V14.01,2013-02-05 17:41:00,
2013-02-05 10:46:00,65.2,40.9,30.00,West,274,0.0,2.0,41,0.00,,,0.00,VWS V14.01,2013-02-05 17:46:00,
2013-02-05 10:51:00,65.6,41.9,30.00,West,274,0.0,3.0,42,0.00,,,0.00,VWS V14.01,2013-02-05 17:51:00,
2013-02-05 10:56:00,66.1,41.7,29.99,West,274,1.0,4.0,41,0.00,,,0.00,VWS V14.01,2013-02-05 17:56:00,
2013-02-05 11:01:00,66.6,41.5,29.99,West,274,4.0,4.0,40,0.00,,,0.00,VWS V14.01,2013-02-05 18:01:00,
2013-02-05 11:06:00,67.0,41.2,29.99,West,268,3.0,5.0,39,0.00,,,0.00,VWS V14.01,2013-02-05 18:06:00,
2013-02-05 11:11:00,67.1,42.0,29.99,West,260,3.0,6.0,40,0.00,,,0.00,VWS V14.01,2013-02-05 18:11:00,
2013-02-05 11:16:00,67.0,41.9,29.99,WSW,257,1.0,5.0,40,0.00,,,0.00,VWS V14.01,2013-02-05 18:16:00,
2013-02-05 11:21:00,67.2,42.1,29.99,WSW,253,4.0,4.0,40,0.00,,,0.00,VWS V14.01,2013-02-05 18:21:00,
2013-02-05 11:26:00,67.5,41.0,29.99,WSW,253,5.0,6.0,38,0.00,,,0.00,VWS V14.01,2013-02-05 18:26:00,
2013-02-05 11:31:00,67.6,41.1,29.99,WSW,253,2.0,3.0,38,0.00,,,0.00,VWS V14.01,2013-02-05 18:31:00,
2013-02-05 11:36:00,68.0,41.5,29.99,WSW,253,0.0,0.0,38,0.00,,,0.00,VWS V14.01,2013-02-05 18:36:00,
2013-02-05 11:41:00,68.3,41.0,29.98,WSW,253,4.0,4.0,37,0.00,,,0.00,VWS V14.01,2013-02-05 18:41:00,
2013-02-05 11:46:00,68.4,41.1,29.98,WSW,252,0.0,1.0,37,0.00,,,0.00,VWS V14.01,2013-02-05 18:46:00,
2013-02-05 11:51:00,68.6,41.3,29.98,WSW,252,1.0,4.0,37,0.00,,,0.00,VWS V14.01,2013-02-05 18:51:00,
2013-02-05 11:56:00,68.9,41.6,29.98,WSW,252,4.0,4.0,37,0.00,,,0.00,VWS V14.01,2013-02-05 18:56:00,
2013-02-05 12:01:00,69.5,42.1,29.98,WSW,252,1.0,1.0,37,0.00,,,0.00,VWS V14.01,2013-02-05 19:01:00,
2013-02-05 12:06:00,69.9,41.8,29.97,WSW,252,1.0,4.0,36,0.00,,,0.00,VWS V14.01,2013-02-05 19:06:00,
2013-02-05 12:11:00,70.4,42.2,29.97,WSW,252,0.0,3.0,36,0.00,,,0.00,VWS V14.01,2013-02-05 19:11:00,
2013-02-05 12:16:00,70.5,41.6,29.97,WSW,252,1.0,1.0,35,0.00,,,0.00,VWS V14.01,2013-02-05 19:16:00,
2013-02-05 12:21:00,70.4,41.5,29.96,WSW,252,3.0,3.0,35,0.00,,,0.00,VWS V14.01,2013-02-05 19:21:00,
2013-02-05 12:26:00,70.5,41.6,29.96,WSW,252,2.0,4.0,35,0.00,,,0.00,VWS V14.01,2013-02-05 19:26:00,
2013-02-05 12:31:00,70.6,41.7,29.96,WSW,252,3.0,4.0,35,0.00,,,0.00,VWS V14.01,2013-02-05 19:31:00,
2013-02-05 12:36:00,70.9,41.2,29.96,WSW,252,1.0,5.0,34,0.00,,,0.00,VWS V14.01,2013-02-05 19:36:00,
2013-02-05 12:41:00,71.1,40.6,29.96,WSW,252,1.0,4.0,33,0.00,,,0.00,VWS V14.01,2013-02-05 19:41:00,
2013-02-05 12:46:00,71.2,39.0,29.96,WSW,252,0.0,0.0,31,0.00,,,0.00,VWS V14.01,2013-02-05 19:46:00,
2013-02-05 12:51:00,71.2,40.7,29.95,WSW,252,2.0,5.0,33,0.00,,,0.00,VWS V14.01,2013-02-05 19:51:00,
2013-02-05 12:56:00,71.4,40.0,29.95,WSW,244,2.0,7.0,32,0.00,,,0.00,VWS V14.01,2013-02-05 19:56:00,
2013-02-05 13:01:00,71.3,39.1,29.95,WSW,244,2.0,2.0,31,0.00,,,0.00,VWS V14.01,2013-02-05 20:01:00,
2013-02-05 13:06:00,71.2,40.7,29.94,WSW,244,4.0,4.0,33,0.00,,,0.00,VWS V14.01,2013-02-05 20:06:00,
2013-02-05 13:11:00,71.5,40.1,29.94,WSW,244,3.0,4.0,32,0.00,,,0.00,VWS V14.01,2013-02-05 20:11:00,
2013-02-05 13:16:00,71.6,40.2,29.94,WSW,244,1.0,4.0,32,0.00,,,0.00,VWS V14.01,2013-02-05 20:16:00,
2013-02-05 13:21:00,71.7,39.5,29.93,SSW,195,2.0,4.0,31,0.00,,,0.00,VWS V14.01,2013-02-05 20:21:00,
2013-02-05 13:26:00,71.4,39.2,29.92,SSW,195,0.0,4.0,31,0.00,,,0.00,VWS V14.01,2013-02-05 20:26:00,
2013-02-05 13:31:00,71.7,40.3,29.92,SSW,195,5.0,6.0,32,0.00,,,0.00,VWS V14.01,2013-02-05 20:31:00,
2013-02-05 13:36:00,72.0,39.7,29.92,SSW,195,6.0,6.0,31,0.00,,,0.00,VWS V14.01,2013-02-05 20:36:00,
2013-02-05 13:41:00,72.1,39.8,29.92,SSW,197,5.0,6.0,31,0.00,,,0.00,VWS V14.01,2013-02-05 20:41:00,
2013-02-05 13:46:00,72.4,40.1,29.91,SSW,198,1.0,5.0,31,0.00,,,0.00,VWS V14.01,2013-02-05 20:46:00,
2013-02-05 13:51:00,72.4,39.2,29.91,SSW,198,1.0,3.0,30,0.00,,,0.00,VWS V14.01,2013-02-05 20:51:00,
2013-02-05 13:56:00,72.6,39.4,29.91,SSW,207,7.0,9.0,30,0.00,,,0.00,VWS V14.01,2013-02-05 20:56:00,
2013-02-05 14:01:00,72.5,38.5,29.90,SW,214,3.0,5.0,29,0.00,,,0.00,VWS V14.01,2013-02-05 21:01:00,
2013-02-05 14:06:00,72.4,37.5,29.90,SW,217,6.0,9.0,28,0.00,,,0.00,VWS V14.01,2013-02-05 21:06:00,
2013-02-05 14:11:00,72.3,37.4,29.90,SW,217,4.0,9.0,28,0.00,,,0.00,VWS V14.01,2013-02-05 21:11:00,
2013-02-05 14:16:00,72.3,38.3,29.90,SW,217,2.0,3.0,29,0.00,,,0.00,VWS V14.01,2013-02-05 21:16:00,
2013-02-05 14:21:00,72.5,36.7,29.90,SW,217,2.0,3.0,27,0.00,,,0.00,VWS V14.01,2013-02-05 21:21:00,
2013-02-05 14:26:00,72.6,35.8,29.89,SW,216,5.0,5.0,26,0.00,,,0.00,VWS V14.01,2013-02-05 21:26:00,
2013-02-05 14:31:00,72.6,36.7,29.89,SW,214,2.0,3.0,27,0.00,,,0.00,VWS V14.01,2013-02-05 21:31:00,
2013-02-05 14:36:00,72.5,36.7,29.89,SW,214,1.0,4.0,27,0.00,,,0.00,VWS V14.01,2013-02-05 21:36:00,
2013-02-05 14:41:00,72.5,36.7,29.89,SW,214,0.0,2.0,27,0.00,,,0.00,VWS V14.01,2013-02-05 21:41:00,
2013-02-05 14:46:00,72.6,36.7,29.89,SW,215,1.0,6.0,27,0.00,,,0.00,VWS V14.01,2013-02-05 21:46:00,
2013-02-05 14:51:00,72.8,36.9,29.89,SW,215,4.0,7.0,27,0.00,,,0.00,VWS V14.01,2013-02-05 21:51:00,
2013-02-05 14:56:00,72.8,36.9,29.89,SW,215,0.0,3.0,27,0.00,,,0.00,VWS V14.01,2013-02-05 21:56:00,
2013-02-05 15:01:00,72.8,36.9,29.89,SW,215,1.0,2.0,27,0.00,,,0.00,VWS V14.01,2013-02-05 22:01:00,
2013-02-05 15:06:00,72.8,36.0,29.89,SW,215,0.0,3.0,26,0.00,,,0.00,VWS V14.01,2013-02-05 22:06:00,
2013-02-05 15:12:00,72.8,36.9,29.89,SW,215,4.0,4.0,27,0.00,,,0.00,VWS V14.01,2013-02-05 22:12:00,
2013-02-05 15:17:00,72.8,37.8,29.89,SW,220,3.0,6.0,28,0.00,,,0.00,VWS V14.01,2013-02-05 22:17:00,
2013-02-05 15:22:00,72.6,37.7,29.89,SSW,198,6.0,9.0,28,0.00,,,0.00,VWS V14.01,2013-02-05 22:22:00,
2013-02-05 15:27:00,72.3,37.4,29.89,South,183,4.0,7.0,28,0.00,,,0.00,VWS V14.01,2013-02-05 22:27:00,
2013-02-05 15:32:00,72.2,36.4,29.89,SW,218,3.0,3.0,27,0.00,,,0.00,VWS V14.01,2013-02-05 22:32:00,
2013-02-05 15:37:00,72.4,37.5,29.89,SW,224,1.0,3.0,28,0.00,,,0.00,VWS V14.01,2013-02-05 22:37:00,
2013-02-05 15:42:00,72.7,36.8,29.89,WSW,238,4.0,6.0,27,0.00,,,0.00,VWS V14.01,2013-02-05 22:42:00,
2013-02-05 15:47:00,72.8,36.9,29.89,WSW,238,6.0,7.0,27,0.00,,,0.00,VWS V14.01,2013-02-05 22:47:00,
2013-02-05 15:52:00,72.8,36.9,29.89,SW,232,3.0,8.0,27,0.00,,,0.00,VWS V14.01,2013-02-05 22:52:00,
2013-02-05 15:57:00,72.5,36.7,29.89,SW,225,0.0,4.0,27,0.00,,,0.00,VWS V14.01,2013-02-05 22:57:00,
2013-02-05 16:02:00,72.4,37.5,29.89,SW,231,3.0,5.0,28,0.00,,,0.00,VWS V14.01,2013-02-05 23:02:00,
2013-02-05 16:07:00,72.2,37.3,29.89,SW,229,4.0,6.0,28,0.00,,,0.00,VWS V14.01,2013-02-05 23:07:00,
2013-02-05 16:12:00,72.1,37.2,29.89,West,279,1.0,6.0,28,0.00,,,0.00,VWS V14.01,2013-02-05 23:12:00,
2013-02-05 16:17:00,72.0,37.1,29.89,SSW,209,6.0,9.0,28,0.00,,,0.00,VWS V14.01,2013-02-05 23:17:00,
2013-02-05 16:22:00,71.7,37.8,29.89,SSW,206,0.0,2.0,29,0.00,,,0.00,VWS V14.01,2013-02-05 23:22:00,
2013-02-05 16:27:00,71.7,37.8,29.89,SSW,206,2.0,3.0,29,0.00,,,0.00,VWS V14.01,2013-02-05 23:27:00,
2013-02-05 16:32:00,71.7,37.8,29.89,SW,218,3.0,6.0,29,0.00,,,0.00,VWS V14.01,2013-02-05 23:32:00,
2013-02-05 16:37:00,71.5,37.6,29.89,SW,219,1.0,4.0,29,0.00,,,0.00,VWS V14.01,2013-02-05 23:37:00,
2013-02-05 16:42:00,71.5,38.5,29.89,SW,219,1.0,3.0,30,0.00,,,0.00,VWS V14.01,2013-02-05 23:42:00,
2013-02-05 16:47:00,71.3,38.3,29.89,SW,219,0.0,4.0,30,0.00,,,0.00,VWS V14.01,2013-02-05 23:47:00,
2013-02-05 16:52:00,71.2,38.2,29.89,SW,219,0.0,1.0,30,0.00,,,0.00,VWS V14.01,2013-02-05 23:52:00,
2013-02-05 16:57:00,71.1,38.1,29.89,SW,226,2.0,4.0,30,0.00,,,0.00,VWS V14.01,2013-02-05 23:57:00,
2013-02-05 17:02:00,71.0,38.0,29.89,SW,226,0.0,3.0,30,0.00,,,0.00,VWS V14.01,2013-02-06 00:02:00,
2013-02-05 17:07:00,70.8,37.9,29.89,SW,226,0.0,2.0,30,0.00,,,0.00,VWS V14.01,2013-02-06 00:07:00,
2013-02-05 17:12:00,70.8,37.9,29.89,SW,226,1.0,2.0,30,0.00,,,0.00,VWS V14.01,2013-02-06 00:12:00,
2013-02-05 17:17:00,70.6,40.1,29.89,West,267,4.0,6.0,33,0.00,,,0.00,VWS V14.01,2013-02-06 00:17:00,
2013-02-05 17:22:00,69.9,40.3,29.89,NNW,331,6.0,7.0,34,0.00,,,0.00,VWS V14.01,2013-02-06 00:22:00,
2013-02-05 17:27:00,68.7,40.7,29.89,NW,313,8.0,8.0,36,0.00,,,0.00,VWS V14.01,2013-02-06 00:27:00,
2013-02-05 17:32:00,67.7,40.5,29.89,NW,317,9.0,9.0,37,0.00,,,0.00,VWS V14.01,2013-02-06 00:32:00,
2013-02-05 17:37:00,67.0,41.2,29.89,NNW,331,4.0,5.0,39,0.00,,,0.00,VWS V14.01,2013-02-06 00:37:00,
2013-02-05 17:42:00,66.3,40.6,29.89,NW,323,2.0,8.0,39,0.00,,,0.00,VWS V14.01,2013-02-06 00:42:00,
2013-02-05 17:47:00,65.6,40.7,29.89,NNW,329,3.0,6.0,40,0.00,,,0.00,VWS V14.01,2013-02-06 00:47:00,
2013-02-05 17:52:00,64.9,40.7,29.89,NW,319,3.0,5.0,41,0.00,,,0.00,VWS V14.01,2013-02-06 00:52:00,
2013-02-05 17:57:00,64.4,40.8,29.89,NNW,342,6.0,8.0,42,0.00,,,0.00,VWS V14.01,2013-02-06 00:57:00,
2013-02-05 18:02:00,63.7,40.8,29.89,North,351,5.0,6.0,43,0.00,,,0.00,VWS V14.01,2013-02-06 01:02:00,
2013-02-05 18:07:00,63.1,40.9,29.90,North,355,4.0,6.0,44,0.00,,,0.00,VWS V14.01,2013-02-06 01:07:00,
2013-02-05 18:12:00,62.5,40.3,29.90,North,355,4.0,4.0,44,0.00,,,0.00,VWS V14.01,2013-02-06 01:12:00,
2013-02-05 18:17:00,62.0,40.4,29.90,North,350,5.0,6.0,45,0.00,,,0.00,VWS V14.01,2013-02-06 01:17:00,
2013-02-05 18:22:00,61.6,40.6,29.90,North,349,4.0,6.0,46,0.00,,,0.00,VWS V14.01,2013-02-06 01:22:00,
2013-02-05 18:27:00,61.3,40.4,29.90,NNW,336,3.0,5.0,46,0.00,,,0.00,VWS V14.01,2013-02-06 01:27:00,
2013-02-05 18:32:00,61.1,40.7,29.90,NNW,334,2.0,6.0,47,0.00,,,0.00,VWS V14.01,2013-02-06 01:32:00,
2013-02-05 18:37:00,60.8,41.0,29.90,NNW,333,3.0,5.0,48,0.00,,,0.00,VWS V14.01,2013-02-06 01:37:00,
2013-02-05 18:42:00,60.5,40.7,29.91,NNW,332,1.0,5.0,48,0.00,,,0.00,VWS V14.01,2013-02-06 01:42:00,
2013-02-05 18:47:00,60.2,41.0,29.90,NNW,340,3.0,5.0,49,0.00,,,0.00,VWS V14.01,2013-02-06 01:47:00,
2013-02-05 18:52:00,59.9,40.7,29.91,NNW,334,3.0,5.0,49,0.00,,,0.00,VWS V14.01,2013-02-06 01:52:00,
2013-02-05 18:57:00,59.6,41.0,29.90,NNW,338,3.0,4.0,50,0.00,,,0.00,VWS V14.01,2013-02-06 01:57:00,
2013-02-05 19:02:00,59.3,41.2,29.91,NNW,331,1.0,3.0,51,0.00,,,0.00,VWS V14.01,2013-02-06 02:02:00,
2013-02-05 19:07:00,59.1,41.0,29.91,NNW,332,1.0,3.0,51,0.00,,,0.00,VWS V14.01,2013-02-06 02:07:00,
2013-02-05 19:12:00,58.8,41.2,29.91,NNW,338,2.0,3.0,52,0.00,,,0.00,VWS V14.01,2013-02-06 02:12:00,
2013-02-05 19:17:00,58.4,40.9,29.91,East,98,6.0,6.0,52,0.00,,,0.00,VWS V14.01,2013-02-06 02:17:00,
2013-02-05 19:22:00,58.2,41.2,29.91,NE,55,2.0,3.0,53,0.00,,,0.00,VWS V14.01,2013-02-06 02:22:00,
2013-02-05 19:27:00,58.1,41.1,29.91,NE,55,0.0,2.0,53,0.00,,,0.00,VWS V14.01,2013-02-06 02:27:00,
2013-02-05 19:32:00,57.8,40.8,29.91,NE,55,0.0,3.0,53,0.00,,,0.00,VWS V14.01,2013-02-06 02:32:00,
2013-02-05 19:37:00,57.5,41.0,29.92,NE,55,0.0,0.0,54,0.00,,,0.00,VWS V14.01,2013-02-06 02:37:00,
2013-02-05 19:42:00,57.2,41.2,29.91,NE,55,0.0,1.0,55,0.00,,,0.00,VWS V14.01,2013-02-06 02:42:00,
2013-02-05 19:47:00,56.9,40.9,29.91,NE,55,0.0,3.0,55,0.00,,,0.00,VWS V14.01,2013-02-06 02:47:00,
2013-02-05 19:52:00,56.7,41.2,29.91,NE,51,0.0,1.0,56,0.00,,,0.00,VWS V14.01,2013-02-06 02:52:00,
2013-02-05 19:57:00,56.5,41.0,29.91,NE,51,1.0,2.0,56,0.00,,,0.00,VWS V14.01,2013-02-06 02:57:00,
2013-02-05 20:02:00,56.3,40.8,29.91,NE,50,0.0,3.0,56,0.00,,,0.00,VWS V14.01,2013-02-06 03:02:00,
2013-02-05 20:07:00,56.1,41.1,29.91,NE,50,1.0,2.0,57,0.00,,,0.00,VWS V14.01,2013-02-06 03:07:00,
2013-02-05 20:12:00,55.8,40.8,29.91,NE,50,0.0,1.0,57,0.00,,,0.00,VWS V14.01,2013-02-06 03:12:00,
2013-02-05 20:17:00,55.5,41.0,29.91,NE,50,1.0,2.0,58,0.00,,,0.00,VWS V14.01,2013-02-06 03:17:00,
2013-02-05 20:22:00,55.2,40.7,29.91,NE,50,1.0,2.0,58,0.00,,,0.00,VWS V14.01,2013-02-06 03:22:00,
2013-02-05 20:27:00,54.9,40.9,29.91,NE,50,0.0,2.0,59,0.00,,,0.00,VWS V14.01,2013-02-06 03:27:00,
2013-02-05 20:32:00,54.6,40.6,29.91,NE,50,2.0,2.0,59,0.00,,,0.00,VWS V14.01,2013-02-06 03:32:00,
2013-02-05 20:37:00,54.4,40.8,29.91,NE,50,2.0,3.0,60,0.00,,,0.00,VWS V14.01,2013-02-06 03:37:00,
2013-02-05 20:42:00,54.1,40.5,29.91,NE,50,0.0,3.0,60,0.00,,,0.00,VWS V14.01,2013-02-06 03:42:00,
2013-02-05 20:47:00,53.8,40.7,29.91,NE,50,1.0,3.0,61,0.00,,,0.00,VWS V14.01,2013-02-06 03:47:00,
2013-02-05 20:52:00,53.6,40.5,29.91,NE,44,1.0,3.0,61,0.00,,,0.00,VWS V14.01,2013-02-06 03:52:00,
2013-02-05 20:57:00,53.5,40.8,29.91,NE,44,1.0,2.0,62,0.00,,,0.00,VWS V14.01,2013-02-06 03:57:00,
2013-02-05 21:02:00,53.4,40.7,29.91,NE,34,4.0,4.0,62,0.00,,,0.00,VWS V14.01,2013-02-06 04:02:00,
2013-02-05 21:07:00,53.3,40.6,29.91,NNE,32,0.0,3.0,62,0.00,,,0.00,VWS V14.01,2013-02-06 04:07:00,
2013-02-05 21:12:00,53.3,40.6,29.91,NNE,22,2.0,3.0,62,0.00,,,0.00,VWS V14.01,2013-02-06 04:12:00,
2013-02-05 21:17:00,53.4,40.7,29.91,NNE,22,1.0,4.0,62,0.00,,,0.00,VWS V14.01,2013-02-06 04:17:00,
2013-02-05 21:22:00,53.5,40.8,29.91,NNE,20,4.0,4.0,62,0.00,,,0.00,VWS V14.01,2013-02-06 04:22:00,
2013-02-05 21:27:00,53.5,40.8,29.91,NNE,19,2.0,5.0,62,0.00,,,0.00,VWS V14.01,2013-02-06 04:27:00,
2013-02-05 21:32:00,53.5,40.8,29.91,NNE,19,1.0,3.0,62,0.00,,,0.00,VWS V14.01,2013-02-06 04:32:00,
2013-02-05 21:37:00,53.5,40.8,29.91,NNE,19,0.0,3.0,62,0.00,,,0.00,VWS V14.01,2013-02-06 04:37:00,
2013-02-05 21:42:00,53.5,40.8,29.91,NNE,19,0.0,2.0,62,0.00,,,0.00,VWS V14.01,2013-02-06 04:42:00,
2013-02-05 21:47:00,53.3,40.6,29.91,NNE,19,1.0,2.0,62,0.00,,,0.00,VWS V14.01,2013-02-06 04:47:00,
2013-02-05 21:52:00,53.1,40.4,29.91,NNE,19,2.0,2.0,62,0.00,,,0.00,VWS V14.01,2013-02-06 04:52:00,
2013-02-05 21:57:00,52.7,40.1,29.91,NNE,19,1.0,3.0,62,0.00,,,0.00,VWS V14.01,2013-02-06 04:57:00,
2013-02-05 22:01:00,52.5,40.3,29.91,NNE,19,1.0,3.0,63,0.00,,,0.00,VWS V14.01,2013-02-06 05:01:00,
2013-02-05 22:06:00,52.3,40.1,29.91,NNE,19,0.0,2.0,63,0.00,,,0.00,VWS V14.01,2013-02-06 05:06:00,
2013-02-05 22:11:00,52.0,39.8,29.91,NNE,19,2.0,3.0,63,0.00,,,0.00,VWS V14.01,2013-02-06 05:11:00,
2013-02-05 22:16:00,51.5,39.7,29.92,NNE,19,1.0,4.0,64,0.00,,,0.00,VWS V14.01,2013-02-06 05:16:00,
2013-02-05 22:22:00,51.0,39.7,29.92,NNE,19,0.0,3.0,65,0.00,,,0.00,VWS V14.01,2013-02-06 05:22:00,
2013-02-05 22:27:00,50.6,39.3,29.92,NNE,19,1.0,4.0,65,0.00,,,0.00,VWS V14.01,2013-02-06 05:27:00,
2013-02-05 22:32:00,50.1,39.2,29.92,NNE,19,3.0,4.0,66,0.00,,,0.00,VWS V14.01,2013-02-06 05:32:00,
2013-02-05 22:37:00,49.9,39.4,29.92,NNE,19,3.0,3.0,67,0.00,,,0.00,VWS V14.01,2013-02-06 05:37:00,
2013-02-05 22:42:00,49.6,39.1,29.92,NNE,19,1.0,3.0,67,0.00,,,0.00,VWS V14.01,2013-02-06 05:42:00,
2013-02-05 22:47:00,49.5,39.4,29.92,NNE,19,2.0,3.0,68,0.00,,,0.00,VWS V14.01,2013-02-06 05:47:00,
2013-02-05 22:52:00,49.3,39.2,29.92,NNE,19,0.0,2.0,68,0.00,,,0.00,VWS V14.01,2013-02-06 05:52:00,
2013-02-05 22:57:00,49.1,39.0,29.92,NNE,19,1.0,1.0,68,0.00,,,0.00,VWS V14.01,2013-02-06 05:57:00,
2013-02-05 23:02:00,49.1,39.4,29.92,NNE,19,0.0,2.0,69,0.00,,,0.00,VWS V14.01,2013-02-06 06:02:00,
2013-02-05 23:07:00,49.0,39.3,29.92,NNE,19,0.0,1.0,69,0.00,,,0.00,VWS V14.01,2013-02-06 06:07:00,
2013-02-05 23:12:00,48.8,39.1,29.92,NNE,19,1.0,2.0,69,0.00,,,0.00,VWS V14.01,2013-02-06 06:12:00,
2013-02-05 23:17:00,48.6,38.9,29.92,NNE,19,2.0,3.0,69,0.00,,,0.00,VWS V14.01,2013-02-06 06:17:00,
2013-02-05 23:22:00,48.4,39.1,29.92,NNE,19,0.0,3.0,70,0.00,,,0.00,VWS V14.01,2013-02-06 06:22:00,
2013-02-05 23:27:00,48.2,38.9,29.92,NNE,19,2.0,3.0,70,0.00,,,0.00,VWS V14.01,2013-02-06 06:27:00,
2013-02-05 23:32:00,48.1,38.8,29.92,NNE,19,2.0,3.0,70,0.00,,,0.00,VWS V14.01,2013-02-06 06:32:00,
2013-02-05 23:37:00,47.9,39.0,29.91,NNE,19,3.0,4.0,71,0.00,,,0.00,VWS V14.01,2013-02-06 06:37:00,
2013-02-05 23:42:00,47.8,38.9,29.92,NNE,19,1.0,4.0,71,0.00,,,0.00,VWS V14.01,2013-02-06 06:42:00,
2013-02-05 23:47:00,47.8,38.9,29.91,NNE,19,1.0,2.0,71,0.00,,,0.00,VWS V14.01,2013-02-06 06:47:00,
2013-02-05 23:52:00,47.7,38.8,29.91,NNE,19,0.0,0.0,71,0.00,,,0.00,VWS V14.01,2013-02-06 06:52:00,
2013-02-05 23:57:00,47.6,38.7,29.91,NNE,19,0.0,1.0,71,0.00,,,0.00,VWS V14.01,2013-02-06 06:57:00,